KI5IZM-13 Weather Reports


time (UTC)temp
F
wind
direction
speed
knots
gust
knots
rain 1hr
in
rain 24hr
in
rain mn
in
humidity
%
barometer
mb
20260509201519 85 324 0.0 2.6 0.00 0.01 0.01 65 1009.9
20260509200022 84 344 0.9 3.5 0.00 0.01 0.01 66 1010.0
20260509194509 85 138 1.7 6.1 0.00 0.01 0.01 64 1010.2
20260509193012 84 122 0.0 4.3 0.00 0.01 0.01 70 1010.3
20260509191516 84 92 0.9 3.5 0.00 0.01 0.01 68 1010.4
20260509190020 85 302 0.9 6.1 0.00 0.01 0.01 67 1010.5
20260509184532 84 92 0.9 4.3 0.00 0.01 0.01 68 1010.6
20260509183031 83 196 0.0 4.3 0.00 0.01 0.01 68 1010.8
20260509181517 83 5 0.0 8.7 0.00 0.01 0.01 70 1011.0
20260509180020 82 163 1.7 7.0 0.00 0.01 0.01 71 1011.2
20260509174520 82 244 0.9 6.1 0.00 0.01 0.01 72 1011.3
20260509173029 81 114 0.0 7.8 0.00 0.01 0.01 75 1011.5
20260509171535 80 127 0.0 6.1 0.00 0.01 0.01 77 1011.5
20260509170014 80 252 1.7 6.1 0.00 0.01 0.01 77 1011.5
20260509164521 80 142 0.9 6.1 0.00 0.01 0.01 79 1011.5
20260509163046 79 120 1.7 7.0 0.00 0.01 0.01 78 1011.6
20260509161531 78 118 0.0 3.5 0.00 0.01 0.01 81 1011.5
20260509160028 77 125 0.0 5.2 0.00 0.01 0.01 84 1011.4
20260509154518 75 225 0.0 6.1 0.00 0.01 0.01 89 1011.4
20260509153025 74 138 0.9 4.3 0.00 0.01 0.01 94 1011.4
20260509151524 72 137 0.0 1.7 0.00 0.01 0.01 95 1011.5
20260509150026 72 140 0.0 0.0 0.00 0.01 0.01 95 1011.7
20260509144526 72 160 0.0 0.0 0.00 0.01 0.01 95 1011.8
20260509143016 72 214 0.0 0.9 0.00 0.01 0.01 95 1012.0
20260509141527 72 246 0.0 0.9 0.00 0.01 0.01 95 1012.0
20260509140028 71 178 0.0 4.3 0.00 0.01 0.01 95 1011.9
20260509134526 71 182 0.0 2.6 0.00 0.01 0.01 96 1011.7
20260509133015 71 153 0.0 2.6 0.00 0.01 0.01 96 1011.7
20260509131518 71 168 0.0 0.9 0.00 0.01 0.01 97 1011.7
20260509130024 70 240 0.0 1.7 0.00 0.01 0.01 97 1011.7
20260509124507 70 236 0.0 1.7 0.00 0.01 0.01 97 1011.7
20260509123014 70 292 0.0 1.7 0.00 0.01 0.01 97 1011.5
20260509121530 70 160 0.0 2.6 0.00 0.01 0.01 97 1011.3
20260509120022 69 142 0.0 1.7 0.00 0.01 0.01 97 1011.0
20260509114546 69 136 0.0 2.6 0.00 0.01 0.01 97 1010.9
20260509113010 69 128 0.0 3.5 0.00 0.01 0.01 97 1010.8
20260509111516 69 229 0.9 7.0 0.00 0.01 0.01 96 1010.4
20260509110021 69 154 1.7 5.2 0.00 0.01 0.01 96 1009.9
20260509104522 69 122 0.9 5.2 0.00 0.01 0.01 96 1010.1
20260509103026 69 150 0.9 5.2 0.00 0.01 0.01 96 1010.1
20260509101510 69 132 0.0 3.5 0.00 0.01 0.01 96 1010.5
20260509100016 69 159 0.0 1.7 0.00 0.01 0.01 96 1010.5
20260509094525 69 140 0.0 0.9 0.00 0.01 0.01 96 1010.8
20260509093024 69 208 0.0 1.7 0.00 0.01 0.01 96 1010.9
20260509091527 69 156 0.0 0.9 0.00 0.01 0.01 95 1010.9
20260509090041 69 169 0.0 3.5 0.00 0.01 0.01 95 1010.6
20260509084524 69 155 0.0 1.7 0.00 0.01 0.01 95 1010.9
20260509083041 69 161 0.9 3.5 0.00 0.01 0.01 95 1011.0
20260509081529 69 194 0.0 0.9 0.00 0.01 0.01 95 1011.5
20260509080033 69 352 0.0 0.9 0.00 0.01 0.01 95 1011.6
20260509074528 69 355 0.0 0.9 0.01 0.01 0.01 95 1011.9
20260509073018 69 355 0.0 0.0 0.01 0.01 0.01 95 1011.7
20260509071507 69 352 0.0 0.0 0.01 0.01 0.01 94 1011.6
20260509070009 69 355 0.0 1.7 0.01 0.01 0.01 93 1011.4
20260509064514 69 120 0.9 5.2 0.00 0.00 0.00 92 1011.0
20260509063018 70 119 0.9 6.1 0.00 0.00 0.00 91 1011.2
20260509061521 70 156 0.9 3.5 0.00 0.00 0.00 89 1011.8
20260509060008 70 148 0.0 3.5 0.00 0.00 0.00 89 1012.3
20260509054512 70 127 0.0 3.5 0.00 0.00 0.00 89 1012.3
20260509053027 70 136 0.0 0.0 0.00 0.00 0.00 88 1012.4
20260509051522 71 136 0.0 0.9 0.00 0.00 0.00 88 1012.1
20260509050042 71 155 0.0 1.7 0.00 0.00 0.00 88 1011.8
20260509044508 71 120 0.0 1.7 0.00 0.00 0.00 88 1011.5
20260509043023 71 144 0.0 0.9 0.00 0.00 0.00 88 1011.5
20260509041520 71 123 0.0 2.6 0.00 0.00 0.00 87 1011.4
20260509040022 71 134 0.9 3.5 0.00 0.00 0.00 87 1011.0
20260509034526 71 155 0.0 1.7 0.00 0.00 0.00 86 1011.1
20260509033008 71 156 0.0 2.6 0.00 0.00 0.00 86 1011.2
20260509031516 71 140 0.0 2.6 0.00 0.00 0.00 85 1011.2
20260509030022 71 138 0.0 4.3 0.00 0.00 0.00 86 1010.9
20260509024528 70 114 0.0 0.0 0.00 0.00 0.00 87 1010.9
20260509023028 70 114 0.0 0.0 0.00 0.00 0.00 86 1010.5
20260509021511 70 114 0.0 0.0 0.00 0.00 0.00 86 1010.4
20260509020021 70 114 0.0 0.0 0.00 0.00 0.00 86 1010.4
20260509014524 70 114 0.0 0.0 0.00 0.00 0.00 84 1009.9
20260509013028 71 114 0.0 0.0 0.00 0.00 0.00 82 1009.9
20260509011527 72 144 0.0 0.0 0.00 0.00 0.00 80 1009.4
20260509010033 73 119 0.0 3.5 0.00 0.00 0.00 79 1009.5
20260509004521 73 88 0.0 3.5 0.00 0.00 0.00 78 1009.6
20260509003024 74 78 0.0 3.5 0.00 0.00 0.00 77 1009.5
20260509001528 74 124 0.0 6.1 0.00 0.00 0.00 76 1009.2
20260509000039 75 117 2.6 10.4 0.00 0.00 0.00 75 1009.1
20260508234527 75 126 3.5 8.7 0.00 0.00 0.00 74 1009.5
20260508233022 76 171 1.7 8.7 0.00 0.00 0.00 72 1009.5
20260508231524 77 104 0.9 7.8 0.00 0.00 0.00 71 1009.7
20260508230025 76 156 1.7 6.1 0.00 0.00 0.00 71 1010.3
20260508224548 76 115 0.0 6.1 0.00 0.00 0.00 71 1010.7
20260508223003 76 28 0.0 0.9 0.00 0.00 0.00 80 1010.7
20260508221504 75 115 0.0 6.1 0.00 0.00 0.00 75 1010.3
20260508220009 74 113 2.6 4.3 0.00 0.00 0.00 78 1010.4
20260508214517 74 246 0.0 0.9 0.00 0.00 0.00 78 1011.3
20260508213028 75 231 0.0 0.0 0.00 0.00 0.00 79 1010.8
20260508211504 77 71 0.0 4.3 0.00 0.00 0.00 72 1010.8
20260508210004 78 300 0.0 0.0 0.00 0.00 0.00 62 1010.9
20260508204511 79 146 2.6 7.8 0.00 0.00 0.00 59 1010.8
20260508203016 79 94 0.9 8.7 0.00 0.00 0.00 60 1010.7